![]() |
EMODnet Physics ERDDAP
Easier access to scientific data |
log in|
Brought to you by EMODnet Physics |
| Dataset Title: | NDBC - Collection of dew point temperature (DEWT) TimeSeries - IN SITU MultiPointTimeSeriesObservation
|
| Institution: | NDBC (Dataset ID: TS_DEWT_NDBC) |
| Information: | Summary
| License
| FGDC
| ISO 19115
| Metadata
| Background
| Subset
| Data Access Form
| Make a graph
|
| Name | Last modified | Size | Description | |
|---|---|---|---|---|
| Parent Directory | - | - | ||
| 45013_TS_DEWT_042021.nc | 26-Oct-2024 20:12 | 449944 | ||
| 45013_TS_DEWT_042023.nc | 26-Oct-2024 20:12 | 449618 | ||
| 45013_TS_DEWT_052015.nc | 26-Oct-2024 20:12 | 429838 | ||
| 45013_TS_DEWT_052017.nc | 26-Oct-2024 20:12 | 451333 | ||
| 45013_TS_DEWT_052018.nc | 26-Oct-2024 20:12 | 451295 | ||
| 45013_TS_DEWT_052020.nc | 26-Oct-2024 20:12 | 450565 | ||
| 45013_TS_DEWT_052021.nc | 26-Oct-2024 20:12 | 1268863 | ||
| 45013_TS_DEWT_052023.nc | 26-Oct-2024 20:12 | 1265136 | ||
| 45013_TS_DEWT_062014.nc | 26-Oct-2024 20:12 | 1266297 | ||
| 45013_TS_DEWT_062015.nc | 26-Oct-2024 20:12 | 1108417 | ||
| 45013_TS_DEWT_062016.nc | 26-Oct-2024 20:12 | 1268024 | ||
| 45013_TS_DEWT_062017.nc | 26-Oct-2024 20:13 | 1266496 | ||
| 45013_TS_DEWT_062018.nc | 26-Oct-2024 20:13 | 1265217 | ||
| 45013_TS_DEWT_062019.nc | 26-Oct-2024 20:13 | 427719 | ||
| 45013_TS_DEWT_062020.nc | 26-Oct-2024 20:13 | 449540 | ||
| 45013_TS_DEWT_062021.nc | 26-Oct-2024 20:13 | 450098 | ||
| 45013_TS_DEWT_062022.nc | 26-Oct-2024 20:13 | 449878 | ||
| 45013_TS_DEWT_062023.nc | 26-Oct-2024 20:13 | 450002 | ||
| 45013_TS_DEWT_072012.nc | 26-Oct-2024 20:13 | 449802 | ||
| 45013_TS_DEWT_072013.nc | 26-Oct-2024 20:13 | 429831 | ||
| 45013_TS_DEWT_072014.nc | 26-Oct-2024 20:13 | 433904 | ||
| 45013_TS_DEWT_072015.nc | 26-Oct-2024 20:13 | 450650 | ||
| 45013_TS_DEWT_072016.nc | 26-Oct-2024 20:13 | 449899 | ||
| 45013_TS_DEWT_072017.nc | 26-Oct-2024 20:13 | 1268661 | ||
| 45013_TS_DEWT_072018.nc | 26-Oct-2024 20:13 | 1266015 | ||
| 45013_TS_DEWT_072019.nc | 26-Oct-2024 20:13 | 1264402 | ||
| 45013_TS_DEWT_072020.nc | 26-Oct-2024 20:13 | 1269380 | ||
| 45013_TS_DEWT_072021.nc | 26-Oct-2024 20:13 | 1267418 | ||
| 45013_TS_DEWT_072022.nc | 26-Oct-2024 20:13 | 1267467 | ||
| 45013_TS_DEWT_072023.nc | 26-Oct-2024 20:13 | 1268805 | ||
| 45013_TS_DEWT_082012.nc | 26-Oct-2024 20:14 | 449485 | ||
| 45013_TS_DEWT_082013.nc | 26-Oct-2024 20:14 | 450365 | ||
| 45013_TS_DEWT_082014.nc | 26-Oct-2024 20:14 | 448868 | ||
| 45013_TS_DEWT_082015.nc | 26-Oct-2024 20:14 | 449353 | ||
| 45013_TS_DEWT_082016.nc | 26-Oct-2024 20:14 | 429494 | ||
| 45013_TS_DEWT_082017.nc | 26-Oct-2024 20:14 | 429488 | ||
| 45013_TS_DEWT_082018.nc | 26-Oct-2024 20:14 | 449715 | ||
| 45013_TS_DEWT_082019.nc | 26-Oct-2024 20:14 | 449296 | ||
| 45013_TS_DEWT_082020.nc | 26-Oct-2024 20:14 | 1110788 | ||
| 45013_TS_DEWT_082021.nc | 26-Oct-2024 20:14 | 1113206 | ||
| 45013_TS_DEWT_082022.nc | 26-Oct-2024 20:14 | 1115720 | ||
| 45013_TS_DEWT_082023.nc | 26-Oct-2024 20:14 | 1115275 | ||
| 45013_TS_DEWT_092012.nc | 26-Oct-2024 20:14 | 1113917 | ||
| 45013_TS_DEWT_092014.nc | 26-Oct-2024 20:14 | 1115780 | ||
| 45013_TS_DEWT_092015.nc | 26-Oct-2024 20:14 | 1111875 | ||
| 45013_TS_DEWT_092016.nc | 26-Oct-2024 20:14 | 449817 | ||
| 45013_TS_DEWT_092017.nc | 26-Oct-2024 20:14 | 449782 | ||
| 45013_TS_DEWT_092018.nc | 26-Oct-2024 20:14 | 449883 | ||
| 45013_TS_DEWT_092019.nc | 26-Oct-2024 20:14 | 450328 | ||
| 45013_TS_DEWT_092020.nc | 26-Oct-2024 20:14 | 429831 | ||
| 45013_TS_DEWT_092021.nc | 26-Oct-2024 20:14 | 429837 | ||
| 45013_TS_DEWT_092022.nc | 26-Oct-2024 20:15 | 450399 | ||
| 45013_TS_DEWT_092023.nc | 26-Oct-2024 20:15 | 451080 | ||
| 45013_TS_DEWT_102012.nc | 26-Oct-2024 20:15 | 1267018 | ||
| 45013_TS_DEWT_102014.nc | 26-Oct-2024 20:15 | 1265814 | ||
| 45013_TS_DEWT_102015.nc | 26-Oct-2024 20:15 | 1264826 | ||
| 45013_TS_DEWT_102016.nc | 26-Oct-2024 20:15 | 671769 | ||
| 45013_TS_DEWT_102017.nc | 26-Oct-2024 20:15 | 1266344 | ||
| 45013_TS_DEWT_102018.nc | 26-Oct-2024 20:15 | 1269540 | ||
| 45013_TS_DEWT_102019.nc | 26-Oct-2024 20:15 | 1268377 | ||
| 45013_TS_DEWT_102020.nc | 26-Oct-2024 20:15 | 449741 | ||
| 45013_TS_DEWT_102021.nc | 26-Oct-2024 20:15 | 449266 | ||
| 45013_TS_DEWT_102022.nc | 26-Oct-2024 20:15 | 449176 | ||
| 45013_TS_DEWT_102023.nc | 26-Oct-2024 20:15 | 449361 | ||
| 45013_TS_DEWT_112012.nc | 26-Oct-2024 20:15 | 429489 | ||
| 45013_TS_DEWT_112014.nc | 26-Oct-2024 20:15 | 429491 | ||
| 45013_TS_DEWT_112015.nc | 26-Oct-2024 20:15 | 449495 | ||
| 45013_TS_DEWT_112016.nc | 26-Oct-2024 20:15 | 449781 | ||
| 45013_TS_DEWT_112017.nc | 26-Oct-2024 20:15 | 1115398 | ||
| 45013_TS_DEWT_112018.nc | 26-Oct-2024 20:15 | 1114529 | ||
| 45013_TS_DEWT_112022.nc | 26-Oct-2024 20:15 | 1116671 | ||
| 45013_TS_DEWT_112023.nc | 26-Oct-2024 20:15 | 1113860 | ||
| 45013_TS_DEWT_122023.nc | 26-Oct-2024 20:15 | 1116434 | ||